Regional Weather Roundup
Issued by NWS

Home | Current Version | Previous Version | Graphics & Text | Print | Product List | Glossary On
Versions: 1 2 3 4 5 6 7 8 9 10 11 12 13 14 15 16 17 18 19 20 21 22 23 24 25 26 27 28 29 30 31 32 33 34 35 36 37 38 39 40 41 42 43 44 45 46 47 48 49 50
000
ASUS43 KIND 231959
RWRIN

WEATHER ROUNDUP FOR INDIANA
NATIONAL WEATHER SERVICE INDIANAPOLIS IN
400 PM EDT WED JUL 23 2014

NOTE: "FAIR" INDICATES FEW OR NO CLOUDS BELOW 12,000 FEET WITH NO
SIGNIFICANT WEATHER AND/OR OBSTRUCTIONS TO VISIBILITY.

* - STATION DOES NOT REPORT WEATHER SUCH AS PRECIPITATION OR FOG.

+ - STATION NOT QUALITY CONTROLLED BY THE NATIONAL WEATHER SERVICE.
    USE DATA WITH CAUTION...ESPECIALLY DEWPOINT AND RELATIVE
    HUMIDITY OBSERVATIONS.

INZ001>003-010>013-019-020-232100-
NORTHWEST INDIANA

CITY           SKY/WX    TMP DP  RH WIND       PRES   REMARKS
GARY /AIRPORT/ MOSUNNY   68  57  68 N14G30    30.16R
KNOX *+        MOSUNNY   71  58  64 N13G20    30.09S
MONTICELLO +   SUNNY     75  63  66 N18       30.06R
VALPARAISO     SUNNY     67  56  67 N13G24    30.13R

$$

LMZ046-743>745-232100-
SOUTHERN LAKE MICHIGAN

STATION/POSITION TIME  TEMP WIND        PRES
                       AIR  DIR/SP/G
                 (UTC) (F)  (DEG/KT/KT) (MB)
MICHIGAN CITY    1900   63  340/ 22/ 25   N/A

$$

INZ004-005-014>016-021>024-232100-
NORTH CENTRAL INDIANA

CITY           SKY/WX    TMP DP  RH WIND       PRES   REMARKS
ELKHART        PTSUNNY   73  55  53 N12       30.08S
GOSHEN         PTSUNNY   74  58  57 N9        30.06F
PERU/GRISSOM   MOSUNNY   75  66  73 N13       30.04F
SOUTH BEND     MOSUNNY   73  59  61 N16       30.09S
WARSAW +       PTSUNNY   73  61  64 NW9G24    30.06S

$$

INZ006>009-017-018-025>027-232100-
NORTHEAST INDIANA

CITY           SKY/WX    TMP DP  RH WIND       PRES   REMARKS
ANGOLA *+      PTSUNNY   75  59  57 NE9       30.05S
FORT WAYNE     PTSUNNY   72  62  71 N13       30.05S

$$

INZ028-029-035-036-043>045-051>053-232100-
WEST CENTRAL INDIANA

CITY           SKY/WX    TMP DP  RH WIND       PRES   REMARKS
GREENCASTLE +  CLOUDY    70  66  88 N9        30.04F
LAFAYETTE      MOSUNNY   77  61  57 N15G22    30.05F
TERRE HAUTE    CLOUDY    71  67  87 N6        30.04S

$$

INZ030>032-037>040-046>048-054>057-064-065-232100-
CENTRAL INDIANA

CITY           SKY/WX    TMP DP  RH WIND       PRES   REMARKS
ANDERSON       CLOUDY    73  68  83 NW12      30.04F
COLUMBUS       CLOUDY    77  73  88 N7        30.00F
INDIANAPOLIS   CLOUDY    74  69  85 N13       30.02F
-EAGLE CREEK   CLOUDY    70  67  90 N9        30.02F
KOKOMO *+      CLOUDY    73  66  78 N12       30.04F
MT COMFORT *+  CLOUDY    75  75 100 N9        30.02F
SHELBYVILLE    CLOUDY    78  70  76 N12       30.01S

$$

INZ033-034-041-042-049-050-058-059-232100-
EAST CENTRAL INDIANA

CITY           SKY/WX    TMP DP  RH WIND       PRES   REMARKS
MUNCIE         CLOUDY    72  67  84 N14       30.03F

$$

INZ060-061-067>069-081>083-085>088-232100-
SOUTHWEST INDIANA

CITY           SKY/WX    TMP DP  RH WIND       PRES   REMARKS
EVANSVILLE     PTSUNNY   78  69  73 W8        30.02S
HUNTINGBURG *+ PTSUNNY   81  70  69 NW8       30.01S

$$

INZ062-063-066-070>080-084-089>092-232100-
SOUTH CENTRAL AND SOUTHEAST INDIANA

CITY           SKY/WX    TMP DP  RH WIND       PRES   REMARKS
BLOOMINGTON    CLOUDY    75  70  84 NW6       30.02S
SEYMOUR +      PTSUNNY   79  54  41 W7        29.99

$$



USA.gov is the U.S. government's official web portal to all federal, state and local government web resources and services.